Precipitable_Water
1.96 1.96 1.98 1.95 1.89 1.82 1.80 1.82 1.81 1.84 1.84 1.86 1.83 1.83 1.84 1.86 1.86 1.90 1.96 1.94 1.97 1.97 1.96 1.97 1.97 1.96 1.95 1.94 1.92 1.92 1.90 1.87 1.85 1.83 1.82 1.81 1.83 1.85 1.88 1.90 1.87 1.89 1.91 1.92 1.97 1.95 1.93 1.90 1.89 1.90 1.94 1.88 1.85 1.84 1.82 1.81 1.80 1.78 1.79 1.78 1.75 1.77 1.69 1.57 1.42 1.37 1.49 1.66 1.64 1.61 1.67 1.68 1.65 1.76 1.72 1.76 1.77 1.79 1.79 1.76 1.76 1.77 1.81 1.83 1.87
2.03 2.06 2.12 2.12 1.96 1.92 1.88 1.88 1.88 1.88 1.86 1.87 1.86 1.88 1.89 1.91 1.94 1.97 1.94 1.98 2.01 2.00 2.01 2.03 2.03 2.02 1.98 1.96 1.97 1.98 1.97 1.93 1.90 1.88 1.85 1.84 1.83 1.87 1.88 1.90 1.89 1.89 1.92 1.89 1.93 1.95 1.95 1.90 1.88 1.90 1.97 1.91 1.89 1.84 1.84 1.83 1.80 1.77 1.77 1.77 1.76 1.76 1.81 1.66 1.57 1.49 1.40 1.57 1.58 1.67 1.62 1.72 1.58 1.77 1.70 1.70 1.72 1.78 1.76 1.78 1.80 1.80 1.81 1.84 1.83
1.98 1.91 1.86 1.88 1.97 2.03 2.01 1.95 1.94 1.92 1.90 1.89 1.88 1.89 1.92 1.94 1.99 1.97 1.96 1.99 2.05 2.05 2.06 2.05 2.05 2.04 2.02 2.02 2.02 2.02 2.02 1.98 1.98 1.95 1.93 1.90 1.86 1.86 1.89 1.90 1.89 1.87 1.87 1.89 1.91 1.95 1.92 1.89 1.88 1.91 1.95 1.89 1.89 1.93 1.93 1.86 1.84 1.78 1.76 1.79 1.76 1.79 1.81 1.78 1.65 1.52 1.48 1.49 1.59 1.54 1.56 1.63 1.61 1.65 1.76 1.78 1.79 1.82 1.77 1.79 1.81 1.82 1.83 1.82 1.80
1.93 1.88 1.78 1.80 1.88 1.97 2.03 2.02 2.00 1.98 1.94 1.94 1.91 1.93 1.96 1.97 2.02 2.01 2.03 2.04 2.03 2.08 2.11 2.11 2.09 2.06 2.05 2.06 2.07 2.06 2.06 2.05 2.04 2.03 2.01 1.98 1.92 1.88 1.90 1.92 1.92 1.92 1.91 1.91 1.91 1.92 1.90 1.87 1.87 1.90 1.89 1.85 1.87 1.85 1.88 1.91 1.83 1.80 1.77 1.77 1.76 1.74 1.77 1.77 1.74 1.64 1.60 1.49 1.57 1.56 1.62 1.58 1.64 1.73 1.80 1.85 1.83 1.81 1.83 1.88 1.93 1.90 1.90 1.88 1.85
1.98 1.91 1.89 1.95 2.00 2.01 2.05 2.09 2.07 2.03 2.03 2.03 2.00 2.02 2.02 2.03 2.06 2.07 2.09 2.07 2.08 2.09 2.13 2.17 2.13 2.10 2.08 2.08 2.09 2.09 2.10 2.11 2.10 2.08 2.07 2.04 1.97 1.92 1.92 1.94 1.96 1.99 1.99 1.95 1.93 1.93 1.91 1.87 1.87 1.91 1.90 1.85 1.84 1.81 1.82 1.80 1.82 1.80 1.75 1.77 1.75 1.75 1.76 1.76 1.76 1.75 1.65 1.56 1.58 1.69 1.73 1.72 1.75 1.77 1.82 1.74 1.78 1.83 1.89 1.88 1.91 1.93 1.96 2.01 2.01
1.91 1.98 2.10 2.06 2.03 1.97 1.93 1.90 1.88 1.95 2.02 2.09 2.09 2.13 2.15 2.15 2.15 2.14 2.15 2.14 2.17 2.18 2.14 2.20 2.13 2.13 2.11 2.10 2.10 2.10 2.12 2.13 2.11 2.09 2.05 2.03 1.97 1.93 1.92 1.92 1.93 1.95 1.97 1.97 1.94 1.96 1.92 1.90 1.91 1.93 1.90 1.83 1.80 1.81 1.82 1.81 1.83 1.80 1.76 1.76 1.78 1.79 1.78 1.81 1.85 1.80 1.73 1.69 1.67 1.66 1.76 1.71 1.72 1.76 1.83 1.84 1.76 1.75 1.82 1.91 1.95 1.98 1.97 1.96 2.02
1.91 2.02 2.10 2.05 2.05 1.99 1.98 1.97 1.96 2.02 2.10 2.09 2.09 2.14 2.16 2.16 2.18 2.20 2.21 2.17 2.10 2.04 2.08 2.12 2.15 2.15 2.11 2.09 2.05 2.06 2.06 2.08 2.08 2.04 1.98 1.96 1.95 1.94 1.94 1.92 1.94 1.99 2.02 2.00 1.97 1.98 1.96 1.94 1.94 1.95 1.90 1.87 1.85 1.85 1.86 1.85 1.82 1.78 1.78 1.76 1.78 1.79 1.78 1.80 1.82 1.81 1.80 1.74 1.74 1.74 1.71 1.80 1.80 1.72 1.86 1.92 1.88 1.84 1.76 1.75 1.78 1.93 1.95 1.92 1.89
1.79 1.93 1.97 1.97 1.96 1.96 1.98 2.03 2.04 2.01 2.03 2.11 2.06 2.06 2.12 2.15 2.09 2.13 2.15 2.11 2.11 2.12 2.09 2.08 2.12 2.14 2.11 2.06 2.07 2.08 2.07 2.06 2.01 1.96 1.94 1.95 1.97 1.94 1.94 1.93 1.90 1.97 2.02 2.00 2.01 1.99 1.96 1.96 1.97 1.97 1.93 1.93 1.91 1.91 1.92 1.89 1.90 1.84 1.87 1.85 1.84 1.83 1.81 1.81 1.81 1.80 1.78 1.75 1.71 1.69 1.74 1.74 1.80 1.86 1.89 1.87 1.77 1.75 1.80 1.74 1.64 1.69 1.74 1.83 1.86
1.74 1.81 1.87 1.89 1.92 1.96 2.00 2.03 2.02 1.99 1.99 2.00 2.02 2.05 2.08 2.10 2.08 2.10 2.16 2.16 2.15 2.13 2.14 2.14 2.10 2.07 2.09 2.08 2.07 2.07 2.01 1.96 1.94 1.92 1.91 1.91 1.95 1.98 1.99 1.95 1.91 1.90 1.95 2.00 2.04 2.01 1.98 2.00 1.99 1.97 1.97 1.97 2.00 2.00 2.00 2.02 1.96 1.89 1.92 1.93 1.91 1.90 1.88 1.87 1.84 1.80 1.79 1.77 1.75 1.80 1.76 1.73 1.74 1.72 1.68 1.65 1.60 1.59 1.72 1.73 1.62 1.64 1.65 1.64 1.73
1.74 1.78 1.82 1.87 1.93 1.97 1.97 1.97 1.96 1.99 1.98 1.96 1.99 2.04 2.06 2.08 2.09 2.10 2.13 2.13 2.10 2.07 2.06 2.06 2.05 2.03 2.01 2.02 2.02 1.99 1.95 1.95 1.95 1.96 1.97 1.96 1.97 2.01 2.02 1.98 1.89 1.85 1.88 1.93 1.98 1.99 1.99 2.01 2.01 2.00 2.00 2.01 2.00 2.01 2.03 2.05 2.07 2.04 2.00 1.99 1.99 1.94 1.88 1.84 1.83 1.83 1.81 1.76 1.76 1.78 1.72 1.66 1.66 1.66 1.62 1.65 1.71 1.72 1.66 1.63 1.51 1.56 1.56 1.53 1.59
1.77 1.81 1.81 1.86 1.92 1.94 1.90 1.86 1.88 1.90 1.96 1.96 1.94 1.96 2.06 2.13 2.15 2.13 2.09 2.05 2.01 2.00 2.01 2.00 1.99 1.99 2.01 2.03 1.99 1.95 1.93 1.95 1.96 1.97 2.00 2.02 1.99 1.98 2.01 2.02 1.98 1.92 1.90 1.93 1.93 1.96 2.01 2.02 2.00 1.99 2.01 2.00 2.01 2.02 2.03 2.06 2.08 2.06 2.06 2.06 2.07 2.03 1.98 1.90 1.86 1.86 1.80 1.78 1.82 1.80 1.71 1.59 1.60 1.64 1.61 1.62 1.64 1.61 1.58 1.58 1.52 1.48 1.39 1.33 1.29
1.76 1.75 1.73 1.82 1.88 1.87 1.84 1.81 1.82 1.87 1.92 1.88 1.88 1.91 1.97 2.03 2.04 2.03 1.99 1.96 1.96 1.97 1.93 1.94 1.99 2.03 2.04 2.02 1.95 1.91 1.90 1.95 1.96 1.98 2.03 2.05 2.03 2.03 2.03 2.01 2.01 1.97 1.96 1.96 1.97 1.97 1.96 1.96 2.00 2.04 2.04 2.02 2.01 2.00 2.00 2.02 2.04 2.04 2.08 2.07 2.08 2.11 2.12 1.98 1.85 1.75 1.70 1.64 1.63 1.64 1.60 1.54 1.55 1.57 1.56 1.56 1.56 1.59 1.61 1.58 1.52 1.45 1.39 1.36 1.39
1.79 1.76 1.73 1.80 1.83 1.84 1.79 1.76 1.79 1.85 1.91 1.92 1.91 1.91 1.92 1.95 1.95 1.94 1.93 1.98 2.01 1.97 1.95 1.98 2.01 2.05 2.04 1.99 1.95 1.96 1.94 1.97 1.99 2.04 2.08 2.07 2.07 2.08 2.05 2.04 2.00 1.98 1.99 1.97 1.95 1.94 1.95 1.97 1.98 2.02 2.02 1.97 1.95 1.96 1.96 1.95 1.97 1.98 1.95 1.94 1.99 1.99 1.97 1.95 1.94 1.85 1.79 1.66 1.59 1.57 1.57 1.56 1.50 1.55 1.62 1.59 1.62 1.49 1.51 1.47 1.47 1.45 1.43 1.37 1.39
1.74 1.70 1.63 1.72 1.80 1.82 1.79 1.77 1.79 1.81 1.92 1.96 1.96 1.95 1.95 1.94 1.95 1.96 1.97 1.98 1.96 1.98 2.02 2.04 2.06 2.05 2.03 2.01 1.99 1.99 1.97 2.02 2.06 2.09 2.08 2.09 2.10 2.08 2.07 2.06 2.03 2.01 1.99 1.99 1.99 1.97 1.94 1.92 1.92 1.85 1.79 1.76 1.76 1.74 1.72 1.71 1.71 1.72 1.73 1.72 1.70 1.71 1.74 1.77 1.77 1.78 1.77 1.69 1.61 1.49 1.57 1.61 1.52 1.58 1.66 1.67 1.55 1.48 1.47 1.43 1.46 1.40 1.38 1.37 1.48
1.72 1.71 1.65 1.65 1.71 1.74 1.74 1.75 1.75 1.79 1.84 1.86 1.89 1.95 1.98 2.00 1.99 2.00 1.99 1.95 1.94 1.94 1.99 2.02 2.05 2.06 2.06 2.06 2.04 2.05 2.09 2.12 2.11 2.10 2.11 2.10 2.08 2.06 2.03 2.03 2.04 2.02 2.01 1.98 1.94 1.87 1.81 1.77 1.70 1.63 1.61 1.58 1.59 1.56 1.49 1.44 1.41 1.40 1.40 1.42 1.48 1.52 1.55 1.58 1.62 1.66 1.68 1.69 1.65 1.65 1.68 1.70 1.65 1.64 1.65 1.66 1.58 1.53 1.50 1.44 1.44 1.43 1.43 1.47 1.43
1.62 1.63 1.58 1.59 1.63 1.68 1.69 1.73 1.75 1.73 1.80 1.89 1.94 1.88 1.91 1.94 1.95 2.00 1.97 1.97 2.00 2.03 2.05 2.08 2.04 2.04 2.08 2.08 2.04 2.02 2.07 2.10 2.09 2.07 2.05 2.04 2.03 2.02 2.00 1.95 1.88 1.81 1.75 1.71 1.68 1.69 1.68 1.64 1.58 1.54 1.51 1.50 1.50 1.49 1.45 1.41 1.32 1.26 1.24 1.28 1.31 1.36 1.39 1.48 1.53 1.58 1.62 1.64 1.65 1.65 1.67 1.70 1.68 1.61 1.56 1.49 1.43 1.40 1.38 1.39 1.39 1.34 1.26 1.16 1.08
1.55 1.54 1.51 1.53 1.57 1.61 1.64 1.64 1.68 1.68 1.71 1.68 1.68 1.62 1.71 1.87 1.95 2.03 1.98 1.98 2.00 2.02 2.04 2.05 2.07 2.07 2.04 2.03 2.00 1.98 2.00 2.01 1.99 1.99 1.98 1.94 1.88 1.81 1.73 1.66 1.62 1.58 1.55 1.56 1.55 1.54 1.50 1.42 1.36 1.34 1.34 1.35 1.39 1.38 1.37 1.35 1.27 1.22 1.18 1.15 1.16 1.16 1.18 1.28 1.33 1.34 1.38 1.43 1.49 1.53 1.56 1.56 1.54 1.52 1.49 1.48 1.43 1.40 1.30 1.15 1.05 1.11 1.01 0.90 0.94
1.56 1.56 1.54 1.52 1.51 1.51 1.53 1.55 1.54 1.55 1.54 1.51 1.45 1.46 1.62 1.85 1.87 1.95 1.91 1.94 1.91 1.97 2.06 2.02 2.06 2.02 2.02 2.04 2.04 2.00 1.98 2.01 1.99 1.93 1.86 1.81 1.75 1.67 1.62 1.55 1.50 1.45 1.40 1.38 1.32 1.27 1.23 1.23 1.19 1.15 1.13 1.18 1.28 1.32 1.33 1.34 1.28 1.21 1.13 1.09 1.06 1.03 1.06 1.12 1.14 1.17 1.20 1.21 1.24 1.30 1.36 1.41 1.44 1.45 1.45 1.43 1.40 1.38 1.23 1.00 1.06 1.06 0.96 0.95 0.90
1.61 1.59 1.58 1.56 1.50 1.50 1.52 1.50 1.49 1.47 1.46 1.43 1.37 1.34 1.41 1.55 1.74 1.87 1.86 1.86 1.87 1.92 1.92 1.91 1.89 1.90 1.91 1.86 1.85 1.80 1.80 1.81 1.81 1.77 1.73 1.70 1.63 1.54 1.44 1.34 1.24 1.19 1.15 1.12 1.14 1.12 1.12 1.13 1.11 1.09 1.10 1.12 1.15 1.19 1.29 1.31 1.21 1.13 1.09 1.03 0.96 0.93 0.97 1.03 1.01 1.00 1.03 1.03 1.04 1.06 1.08 1.16 1.24 1.29 1.32 1.34 1.34 1.32 1.27 1.19 1.19 1.10 1.00 1.02 1.04
1.66 1.65 1.61 1.56 1.50 1.50 1.52 1.52 1.52 1.48 1.45 1.43 1.39 1.34 1.37 1.42 1.50 1.68 1.82 1.73 1.71 1.77 1.77 1.75 1.70 1.69 1.70 1.67 1.64 1.60 1.54 1.54 1.54 1.51 1.48 1.43 1.38 1.31 1.23 1.13 1.05 1.03 1.03 0.99 0.93 0.92 0.94 0.98 1.02 1.05 1.08 1.11 1.14 1.20 1.20 1.18 1.14 1.10 1.05 0.94 0.88 0.84 0.98 1.00 1.02 1.03 1.00 1.00 1.00 1.03 1.02 1.06 1.10 1.15 1.18 1.22 1.25 1.27 1.27 1.27 1.24 1.19 1.10 1.07 1.07
1.68 1.64 1.58 1.54 1.52 1.52 1.54 1.54 1.52 1.53 1.50 1.43 1.40 1.37 1.35 1.32 1.36 1.44 1.47 1.48 1.50 1.50 1.51 1.50 1.44 1.40 1.41 1.42 1.39 1.38 1.36 1.32 1.34 1.31 1.28 1.24 1.21 1.15 1.08 1.02 0.98 0.93 0.88 0.86 0.86 0.84 0.87 0.92 0.97 1.01 1.05 1.07 1.08 1.09 1.08 1.07 1.06 1.02 0.98 0.94 0.97 1.02 1.07 1.01 1.02 1.06 1.03 1.03 1.03 1.03 1.04 1.06 1.09 1.13 1.15 1.16 1.18 1.23 1.25 1.26 1.27 1.25 1.19 1.13 1.09
1.66 1.62 1.57 1.54 1.56 1.57 1.54 1.53 1.55 1.57 1.53 1.45 1.39 1.36 1.38 1.37 1.34 1.35 1.35 1.32 1.27 1.27 1.27 1.26 1.24 1.24 1.26 1.26 1.25 1.24 1.26 1.24 1.19 1.16 1.14 1.11 1.08 1.05 0.98 0.95 0.93 0.87 0.84 0.85 0.87 0.89 0.91 0.93 0.96 1.00 1.01 1.02 1.01 1.01 1.01 1.02 1.04 1.06 1.06 1.07 1.09 1.10 1.09 1.11 1.11 1.11 1.10 1.10 1.10 1.11 1.12 1.12 1.12 1.14 1.15 1.15 1.18 1.24 1.25 1.26 1.29 1.30 1.32 1.30 1.22
1.71 1.65 1.58 1.53 1.53 1.58 1.58 1.51 1.49 1.54 1.50 1.46 1.39 1.32 1.33 1.32 1.32 1.33 1.30 1.26 1.21 1.17 1.15 1.15 1.13 1.11 1.13 1.15 1.16 1.16 1.17 1.19 1.17 1.13 1.10 1.06 1.03 1.00 0.96 0.94 0.95 0.95 0.91 0.88 0.88 0.94 0.99 0.99 1.01 1.02 1.01 1.02 1.03 1.05 1.07 1.07 1.07 1.08 1.10 1.12 1.13 1.13 1.14 1.12 1.12 1.11 1.10 1.11 1.12 1.10 1.12 1.13 1.09 1.10 1.19 1.24 1.26 1.27 1.29 1.30 1.31 1.31 1.31 1.32 1.32
1.51 1.46 1.47 1.50 1.50 1.54 1.56 1.50 1.47 1.48 1.44 1.40 1.35 1.28 1.25 1.26 1.26 1.27 1.27 1.23 1.17 1.13 1.12 1.11 1.08 1.05 1.04 1.07 1.11 1.14 1.17 1.19 1.18 1.15 1.10 1.06 1.05 1.03 1.02 1.02 1.02 1.00 1.01 1.00 1.03 1.03 1.01 1.03 1.04 1.05 1.05 1.05 1.05 1.05 1.07 1.09 1.08 1.08 1.09 1.11 1.13 1.15 1.14 1.12 1.10 1.10 1.09 1.08 1.05 1.06 1.07 1.18 1.27 1.23 1.16 1.20 1.28 1.27 1.27 1.31 1.31 1.29 1.26 1.25 1.26
1.49 1.42 1.42 1.45 1.46 1.50 1.51 1.45 1.40 1.36 1.32 1.28 1.22 1.21 1.21 1.23 1.20 1.24 1.23 1.20 1.17 1.12 1.10 1.09 1.06 1.05 1.04 1.02 1.04 1.09 1.13 1.16 1.16 1.17 1.15 1.12 1.11 1.08 1.06 1.06 1.05 1.04 1.01 1.04 1.07 1.05 1.04 1.04 1.03 1.03 1.03 1.04 1.06 1.07 1.08 1.09 1.09 1.10 1.12 1.12 1.12 1.10 1.07 1.05 1.05 1.05 1.01 0.98 1.02 1.00 1.08 1.19 1.19 1.15 1.21 1.27 1.26 1.23 1.24 1.25 1.25 1.23 1.22 1.22 1.22
1.51 1.44 1.40 1.40 1.43 1.44 1.36 1.31 1.28 1.25 1.23 1.25 1.24 1.25 1.23 1.23 1.20 1.21 1.20 1.17 1.15 1.12 1.09 1.08 1.07 1.06 1.04 1.02 1.02 1.05 1.08 1.10 1.11 1.13 1.16 1.16 1.11 1.06 1.04 1.04 1.04 1.05 1.06 1.05 1.05 1.03 1.02 1.03 1.03 1.04 1.04 1.06 1.07 1.07 1.07 1.08 1.09 1.09 1.07 1.06 1.03 1.03 1.03 1.01 1.00 1.00 1.00 1.04 1.09 1.04 1.11 1.22 1.19 1.19 1.23 1.23 1.18 1.16 1.18 1.16 1.15 1.14 1.17 1.15 1.13
1.52 1.48 1.41 1.40 1.43 1.42 1.32 1.25 1.20 1.18 1.19 1.23 1.26 1.28 1.29 1.27 1.25 1.24 1.23 1.19 1.17 1.16 1.13 1.08 1.04 1.02 1.00 1.01 1.04 1.05 1.05 1.06 1.08 1.09 1.10 1.07 1.03 1.01 1.01 1.03 1.07 1.09 1.08 1.07 1.06 1.05 1.05 1.06 1.06 1.08 1.09 1.10 1.10 1.09 1.05 1.04 1.01 0.98 0.96 0.94 0.93 0.94 0.96 0.96 0.97 0.97 1.00 1.01 1.01 1.05 1.15 1.21 1.21 1.16 1.13 1.12 1.10 1.14 1.19 1.16 1.13 1.13 1.15 1.16 1.12
1.51 1.50 1.46 1.44 1.47 1.47 1.39 1.32 1.20 1.13 1.18 1.21 1.20 1.22 1.26 1.28 1.25 1.24 1.24 1.23 1.18 1.14 1.10 1.07 1.03 1.00 0.98 0.99 1.01 1.01 1.00 1.02 1.03 1.00 1.01 1.03 1.06 1.05 1.02 1.03 1.05 1.07 1.07 1.09 1.08 1.09 1.09 1.11 1.11 1.12 1.11 1.07 1.04 1.01 0.99 0.97 0.96 0.92 0.90 0.90 0.90 0.93 0.95 0.98 0.99 0.97 0.98 1.02 1.02 1.06 1.08 1.09 1.07 1.08 1.08 1.09 1.11 1.11 1.16 1.15 1.13 1.11 1.13 1.12 1.04
1.52 1.51 1.51 1.49 1.47 1.48 1.41 1.33 1.23 1.14 1.14 1.19 1.23 1.25 1.24 1.26 1.27 1.29 1.34 1.32 1.24 1.14 1.09 1.07 1.06 1.06 1.05 1.02 1.00 0.98 0.99 0.96 0.97 1.03 1.04 1.06 1.04 1.04 1.01 1.01 1.04 1.05 1.07 1.09 1.09 1.08 1.07 1.05 1.03 1.02 1.00 0.96 0.93 0.92 0.91 0.89 0.88 0.89 0.88 0.88 0.89 0.89 0.89 0.90 0.88 0.89 0.94 0.94 0.94 0.95 0.97 1.04 1.07 1.10 1.08 1.05 1.07 1.09 1.14 1.10 1.11 1.09 1.08 1.07 1.00
1.49 1.47 1.48 1.45 1.45 1.44 1.39 1.30 1.22 1.17 1.14 1.14 1.16 1.20 1.29 1.31 1.31 1.26 1.24 1.26 1.23 1.20 1.14 1.06 1.07 1.06 1.03 1.06 1.09 1.01 0.97 1.02 1.08 1.05 1.04 1.03 1.03 1.04 1.05 1.05 1.05 1.08 1.10 1.10 1.05 0.97 0.95 0.93 0.94 0.93 0.93 0.92 0.89 0.87 0.85 0.86 0.84 0.83 0.86 0.88 0.89 0.87 0.86 0.87 0.89 0.92 0.96 0.96 0.97 0.96 0.97 0.99 0.99 1.01 1.02 1.01 1.04 1.07 1.09 1.08 1.06 1.10 1.05 1.03 1.01
1.46 1.45 1.42 1.39 1.43 1.43 1.35 1.27 1.22 1.15 1.13 1.12 1.15 1.15 1.17 1.24 1.30 1.28 1.24 1.21 1.18 1.15 1.14 1.13 1.11 1.10 1.05 0.99 1.06 1.10 1.09 1.08 1.06 1.06 1.06 1.06 1.04 1.03 1.05 1.07 1.08 1.09 1.12 1.09 1.02 0.93 0.89 0.87 0.89 0.91 0.92 0.91 0.89 0.86 0.87 0.85 0.84 0.84 0.86 0.89 0.90 0.89 0.89 0.88 0.90 0.94 0.95 0.97 1.00 1.00 1.00 1.00 0.99 1.01 1.00 1.02 1.03 1.05 1.07 1.11 1.11 1.10 1.08 1.06 1.02
1.43 1.37 1.37 1.39 1.37 1.36 1.32 1.29 1.26 1.20 1.14 1.09 1.08 1.11 1.12 1.11 1.17 1.23 1.23 1.20 1.19 1.19 1.18 1.18 1.17 1.14 1.11 1.07 1.02 1.00 1.04 1.05 1.06 1.07 1.08 1.07 1.08 1.07 1.06 1.08 1.10 1.11 1.10 1.08 0.96 0.91 0.90 0.86 0.87 0.89 0.90 0.89 0.91 0.91 0.90 0.89 0.90 0.89 0.90 0.88 0.89 0.91 0.90 0.87 0.92 0.93 0.94 0.94 0.94 0.95 0.96 0.97 0.98 0.98 0.99 1.00 1.01 1.01 1.02 1.03 1.04 1.04 1.04 1.04 1.02
1.43 1.40 1.38 1.35 1.36 1.32 1.26 1.23 1.23 1.23 1.20 1.12 1.06 1.05 1.03 1.04 1.03 1.10 1.21 1.26 1.27 1.26 1.26 1.26 1.24 1.22 1.19 1.16 1.11 1.06 1.04 1.05 1.07 1.08 1.08 1.08 1.07 1.07 1.07 1.07 1.07 1.09 1.08 1.00 0.91 0.87 0.88 0.88 0.87 0.90 0.90 0.89 0.92 0.92 0.92 0.92 0.91 0.91 0.92 0.92 0.91 0.93 0.94 0.94 0.96 0.94 0.93 0.93 0.92 0.91 0.92 0.93 0.94 0.94 0.95 0.96 0.95 0.92 0.95 0.95 0.96 0.97 0.95 0.91 0.92
1.43 1.42 1.39 1.34 1.30 1.28 1.25 1.21 1.19 1.19 1.21 1.20 1.17 1.09 1.04 1.03 0.99 1.02 1.07 1.15 1.23 1.29 1.33 1.34 1.32 1.28 1.26 1.23 1.18 1.14 1.10 1.07 1.05 1.05 1.05 1.05 1.05 1.05 1.04 1.04 1.06 1.07 1.04 0.97 0.92 0.86 0.87 0.87 0.89 0.90 0.92 0.93 0.93 0.92 0.91 0.91 0.91 0.91 0.92 0.93 0.96 0.98 0.98 0.99 0.94 0.93 0.93 0.92 0.90 0.88 0.88 0.87 0.87 0.84 0.83 0.84 0.85 0.85 0.83 0.84 0.84 0.81 0.81 0.82 0.82
1.44 1.47 1.45 1.38 1.28 1.29 1.28 1.26 1.24 1.22 1.20 1.18 1.17 1.16 1.11 1.06 1.04 1.06 1.08 1.07 1.09 1.13 1.23 1.32 1.34 1.33 1.29 1.26 1.22 1.18 1.13 1.10 1.08 1.05 1.03 1.02 1.02 1.03 1.03 0.99 0.93 0.95 0.97 0.97 0.94 0.89 0.87 0.87 0.88 0.92 0.93 0.92 0.92 0.92 0.90 0.91 0.92 0.92 0.92 0.92 0.94 0.96 0.97 0.96 0.92 0.92 0.92 0.91 0.88 0.86 0.85 0.83 0.82 0.83 0.81 0.80 0.80 0.79 0.80 0.81 0.82 0.82 0.81 0.82 0.84
1.44 1.42 1.42 1.40 1.34 1.29 1.28 1.31 1.29 1.26 1.23 1.22 1.23 1.23 1.22 1.19 1.16 1.17 1.19 1.22 1.21 1.18 1.24 1.32 1.35 1.35 1.34 1.30 1.28 1.23 1.15 1.09 1.05 1.03 1.01 1.01 1.01 1.02 0.93 0.89 0.89 0.89 0.90 0.93 0.94 0.93 0.91 0.92 0.92 0.93 0.96 0.95 0.94 0.92 0.93 0.92 0.93 0.94 0.95 0.94 0.93 0.93 0.94 0.94 0.93 0.89 0.90 0.91 0.87 0.86 0.86 0.85 0.86 0.85 0.85 0.85 0.84 0.83 0.83 0.84 0.84 0.85 0.84 0.83 0.85
1.46 1.43 1.39 1.40 1.38 1.33 1.30 1.30 1.33 1.34 1.31 1.29 1.28 1.27 1.26 1.22 1.21 1.22 1.24 1.24 1.24 1.28 1.28 1.34 1.37 1.36 1.36 1.34 1.32 1.28 1.24 1.17 1.09 1.04 1.01 0.99 0.99 0.99 0.94 0.92 0.90 0.91 0.89 0.90 0.93 0.94 0.91 0.93 0.96 0.96 0.97 0.96 0.96 0.96 0.95 0.94 0.95 0.95 0.96 0.96 0.95 0.92 0.90 0.91 0.92 0.90 0.86 0.87 0.88 0.88 0.87 0.86 0.87 0.88 0.87 0.84 0.85 0.87 0.87 0.87 0.87 0.87 0.86 0.86 0.85
1.46 1.42 1.38 1.37 1.38 1.38 1.34 1.33 1.34 1.33 1.34 1.37 1.40 1.38 1.35 1.35 1.34 1.32 1.30 1.32 1.35 1.32 1.29 1.33 1.36 1.35 1.32 1.35 1.41 1.35 1.29 1.26 1.21 1.14 1.08 1.03 0.98 0.94 0.93 0.93 0.93 0.90 0.89 0.92 0.94 0.94 0.92 0.94 0.99 0.98 0.99 1.00 0.99 0.99 0.98 0.97 0.98 0.98 0.97 0.97 0.95 0.93 0.92 0.91 0.92 0.91 0.90 0.89 0.89 0.89 0.89 0.89 0.90 0.90 0.90 0.87 0.86 0.87 0.89 0.90 0.90 0.88 0.88 0.87 0.86
1.39 1.37 1.38 1.35 1.32 1.32 1.33 1.34 1.35 1.35 1.34 1.35 1.37 1.38 1.38 1.38 1.39 1.42 1.45 1.46 1.44 1.42 1.41 1.40 1.39 1.39 1.41 1.46 1.44 1.47 1.42 1.35 1.29 1.23 1.21 1.19 1.15 1.09 1.01 0.96 0.93 0.93 0.92 0.93 0.95 0.95 0.94 0.93 0.97 1.01 1.02 1.02 1.01 1.01 1.01 1.00 1.02 1.01 1.01 1.00 0.98 0.96 0.92 0.88 0.87 0.89 0.90 0.88 0.89 0.92 0.91 0.91 0.92 0.93 0.93 0.92 0.90 0.91 0.91 0.91 0.92 0.91 0.88 0.87 0.87
1.40 1.38 1.39 1.36 1.32 1.31 1.32 1.33 1.36 1.36 1.36 1.34 1.35 1.37 1.36 1.36 1.40 1.44 1.47 1.43 1.37 1.37 1.40 1.45 1.48 1.50 1.52 1.51 1.48 1.47 1.40 1.39 1.40 1.39 1.36 1.33 1.30 1.29 1.24 1.13 1.04 0.97 0.94 0.94 0.95 0.96 0.96 0.96 0.98 0.99 1.02 1.04 1.04 1.04 1.04 1.04 1.04 1.03 1.03 1.01 0.99 0.97 0.96 0.93 0.88 0.87 0.87 0.89 0.90 0.93 0.94 0.94 0.95 0.97 0.96 0.93 0.91 0.92 0.91 0.90 0.91 0.92 0.91 0.91 0.91
1.47 1.46 1.43 1.41 1.41 1.40 1.38 1.37 1.38 1.40 1.43 1.43 1.45 1.45 1.45 1.47 1.49 1.50 1.48 1.43 1.39 1.40 1.47 1.55 1.57 1.58 1.59 1.57 1.54 1.49 1.42 1.38 1.39 1.41 1.42 1.42 1.42 1.39 1.38 1.38 1.34 1.23 1.11 1.03 1.00 1.00 0.99 0.98 0.99 1.00 1.02 1.05 1.07 1.07 1.07 1.07 1.07 1.06 1.03 1.02 1.01 1.00 1.00 0.98 0.96 0.93 0.91 0.90 0.92 0.93 0.96 0.98 1.00 0.98 0.94 0.95 0.98 0.98 0.97 0.96 0.94 0.93 0.93 0.93 0.93
1.42 1.44 1.42 1.40 1.40 1.41 1.39 1.38 1.39 1.44 1.47 1.46 1.46 1.47 1.50 1.53 1.56 1.56 1.56 1.53 1.47 1.44 1.44 1.48 1.54 1.64 1.66 1.64 1.58 1.53 1.46 1.42 1.41 1.40 1.40 1.42 1.43 1.43 1.44 1.44 1.46 1.46 1.39 1.24 1.13 1.06 1.04 1.03 1.02 1.01 1.02 1.04 1.06 1.07 1.08 1.08 1.08 1.08 1.07 1.06 1.04 1.03 1.02 1.01 1.01 0.99 0.96 0.93 0.93 0.95 0.97 0.99 1.01 1.02 1.01 1.01 1.01 1.01 1.00 0.99 0.99 0.99 0.98 0.97 0.97
1.35 1.37 1.40 1.44 1.42 1.37 1.33 1.34 1.38 1.38 1.39 1.39 1.40 1.43 1.44 1.45 1.45 1.48 1.48 1.48 1.48 1.47 1.43 1.41 1.47 1.56 1.62 1.64 1.63 1.59 1.52 1.49 1.48 1.48 1.47 1.46 1.45 1.43 1.42 1.43 1.46 1.49 1.51 1.47 1.36 1.24 1.15 1.10 1.08 1.07 1.05 1.05 1.07 1.08 1.08 1.08 1.09 1.09 1.10 1.09 1.08 1.07 1.05 1.05 1.05 1.02 1.01 0.97 0.94 0.96 0.98 1.00 1.02 1.03 1.04 1.05 1.06 1.05 1.05 1.05 1.05 1.05 1.05 1.05 1.05
1.28 1.31 1.35 1.37 1.38 1.40 1.40 1.38 1.36 1.36 1.37 1.37 1.39 1.40 1.41 1.42 1.43 1.44 1.45 1.45 1.45 1.45 1.44 1.46 1.51 1.56 1.56 1.60 1.59 1.55 1.51 1.51 1.50 1.48 1.49 1.51 1.52 1.51 1.49 1.47 1.46 1.46 1.48 1.49 1.46 1.37 1.24 1.16 1.11 1.10 1.10 1.09 1.11 1.12 1.12 1.12 1.12 1.11 1.11 1.10 1.10 1.09 1.08 1.07 1.06 1.04 1.01 0.99 0.97 0.98 1.00 1.02 1.05 1.07 1.07 1.08 1.09 1.08 1.09 1.10 1.11 1.10 1.11 1.10 1.11
1.24 1.24 1.25 1.27 1.30 1.30 1.32 1.36 1.36 1.34 1.33 1.33 1.32 1.32 1.34 1.34 1.34 1.35 1.35 1.34 1.35 1.36 1.39 1.45 1.48 1.47 1.46 1.46 1.44 1.42 1.42 1.43 1.44 1.45 1.45 1.46 1.48 1.50 1.52 1.53 1.52 1.49 1.48 1.49 1.50 1.44 1.32 1.21 1.14 1.10 1.09 1.10 1.11 1.12 1.12 1.12 1.13 1.14 1.14 1.14 1.11 1.09 1.08 1.07 1.08 1.09 1.08 1.04 1.02 1.03 1.05 1.08 1.10 1.11 1.11 1.12 1.13 1.13 1.11 1.12 1.12 1.11 1.11 1.11 1.11
1.20 1.19 1.19 1.18 1.19 1.21 1.21 1.22 1.24 1.24 1.23 1.21 1.19 1.17 1.19 1.22 1.24 1.26 1.29 1.32 1.33 1.32 1.31 1.34 1.38 1.42 1.43 1.42 1.42 1.40 1.39 1.39 1.39 1.42 1.45 1.48 1.48 1.49 1.53 1.54 1.55 1.55 1.54 1.54 1.53 1.49 1.39 1.27 1.17 1.11 1.09 1.09 1.09 1.10 1.11 1.12 1.15 1.17 1.19 1.19 1.16 1.13 1.13 1.16 1.18 1.18 1.16 1.14 1.13 1.12 1.13 1.14 1.14 1.14 1.15 1.16 1.16 1.16 1.15 1.16 1.17 1.16 1.14 1.13 1.13
1.19 1.17 1.17 1.16 1.14 1.14 1.15 1.16 1.16 1.16 1.16 1.15 1.15 1.12 1.11 1.11 1.13 1.15 1.17 1.20 1.22 1.24 1.26 1.29 1.31 1.32 1.34 1.35 1.34 1.33 1.33 1.32 1.32 1.36 1.39 1.43 1.46 1.49 1.52 1.53 1.55 1.57 1.57 1.56 1.54 1.52 1.48 1.39 1.24 1.14 1.10 1.09 1.09 1.07 1.09 1.13 1.17 1.21 1.23 1.24 1.22 1.18 1.17 1.20 1.23 1.25 1.25 1.25 1.24 1.22 1.20 1.18 1.17 1.18 1.19 1.21 1.20 1.20 1.20 1.20 1.19 1.18 1.18 1.16 1.14
1.19 1.18 1.18 1.18 1.16 1.13 1.13 1.13 1.13 1.14 1.14 1.13 1.12 1.12 1.11 1.12 1.12 1.11 1.10 1.10 1.11 1.12 1.14 1.18 1.22 1.25 1.26 1.26 1.27 1.27 1.28 1.30 1.32 1.33 1.36 1.38 1.41 1.45 1.48 1.50 1.52 1.56 1.58 1.55 1.53 1.52 1.51 1.45 1.31 1.17 1.11 1.09 1.07 1.05 1.07 1.15 1.21 1.25 1.27 1.29 1.28 1.26 1.24 1.25 1.28 1.30 1.31 1.30 1.29 1.28 1.26 1.24 1.23 1.22 1.22 1.22 1.23 1.24 1.22 1.22 1.23 1.22 1.21 1.19 1.19
1.18 1.16 1.15 1.15 1.15 1.14 1.14 1.14 1.14 1.13 1.13 1.13 1.12 1.11 1.12 1.12 1.13 1.14 1.15 1.15 1.14 1.13 1.12 1.10 1.12 1.17 1.21 1.25 1.28 1.29 1.32 1.33 1.33 1.34 1.35 1.37 1.40 1.43 1.46 1.49 1.51 1.53 1.54 1.52 1.52 1.52 1.52 1.49 1.38 1.23 1.12 1.08 1.07 1.07 1.11 1.19 1.25 1.28 1.30 1.34 1.36 1.33 1.29 1.29 1.31 1.32 1.33 1.33 1.31 1.30 1.30 1.28 1.25 1.23 1.23 1.22 1.23 1.24 1.23 1.23 1.23 1.22 1.23 1.23 1.22
1.16 1.16 1.14 1.14 1.13 1.13 1.15 1.16 1.16 1.16 1.16 1.15 1.13 1.12 1.13 1.14 1.14 1.15 1.16 1.16 1.16 1.16 1.17 1.16 1.14 1.15 1.16 1.20 1.24 1.28 1.31 1.32 1.34 1.37 1.39 1.40 1.40 1.42 1.44 1.47 1.51 1.53 1.49 1.50 1.51 1.52 1.52 1.50 1.40 1.24 1.14 1.10 1.10 1.13 1.19 1.26 1.30 1.33 1.38 1.42 1.42 1.38 1.33 1.32 1.32 1.33 1.33 1.33 1.33 1.32 1.31 1.29 1.28 1.27 1.26 1.26 1.26 1.25 1.24 1.24 1.24 1.25 1.25 1.23 1.22
1.12 1.11 1.10 1.10 1.10 1.12 1.12 1.11 1.12 1.13 1.14 1.13 1.12 1.11 1.11 1.12 1.13 1.14 1.14 1.13 1.12 1.13 1.15 1.17 1.18 1.19 1.18 1.19 1.21 1.25 1.28 1.32 1.36 1.40 1.42 1.42 1.42 1.43 1.44 1.46 1.50 1.50 1.52 1.55 1.59 1.58 1.56 1.53 1.44 1.28 1.18 1.15 1.18 1.24 1.30 1.34 1.37 1.41 1.44 1.45 1.43 1.39 1.35 1.33 1.32 1.33 1.35 1.35 1.35 1.34 1.31 1.29 1.29 1.28 1.29 1.31 1.31 1.30 1.28 1.26 1.26 1.26 1.25 1.24 1.24
Wind_Speed
26 26 25 25 26 25 25 24 24 23 23 22 22 22 22 21 21 20 20 19 19 19 19 19 18 17 17 16 16 15 15 15 15 15 15 15 15 15 14 14 14 14 13 13 13 13 13 13 13 12 12 13 13 13 13 13 13 13 13 13 13 13 12 12 12 12 12 11 11 11 11 11 11 10 11 10 10 10 10 10 10 10 10 10 10
26 25 24 24 25 25 25 25 24 24 24 23 23 23 22 22 21 21 21 20 20 20 19 19 18 18 17 17 17 16 16 16 16 16 16 16 16 16 15 15 15 15 14 14 13 13 13 13 13 13 13 14 14 14 14 14 14 14 14 14 14 14 13 13 13 13 13 13 12 12 12 12 12 11 11 11 11 11 11 11 11 11 11 11 11
25 25 24 24 25 25 25 25 25 24 24 24 24 24 24 23 22 22 21 21 20 20 20 19 19 18 18 18 18 17 17 17 17 17 17 17 17 16 16 16 16 16 15 15 14 14 14 14 14 13 13 14 14 14 14 14 14 15 15 14 15 15 14 14 14 14 14 14 13 13 12 12 12 12 12 12 12 12 13 12 12 12 12 12 12
25 25 25 25 25 25 25 25 25 25 25 25 25 25 25 24 24 23 22 22 21 21 20 19 19 18 18 18 18 18 18 18 18 18 18 18 17 17 17 17 17 17 16 16 15 15 14 14 14 14 14 14 14 14 14 14 15 15 15 15 15 15 15 15 15 15 15 14 14 13 13 13 13 13 13 13 13 13 13 13 13 13 13 13 13
24 26 26 26 25 25 25 25 25 25 26 26 26 26 26 25 25 25 24 23 22 22 21 20 19 19 19 18 18 18 18 18 19 18 18 18 18 18 17 17 17 17 17 16 16 15 15 14 14 14 14 14 14 14 14 14 15 15 15 15 15 15 15 15 15 15 15 15 14 14 14 14 14 14 14 14 14 14 14 14 14 15 15 15 15
25 26 26 25 26 26 25 25 25 25 26 26 27 27 26 26 26 25 25 24 23 22 22 21 20 19 19 19 19 18 18 18 19 19 19 18 18 18 17 17 18 18 17 16 16 15 15 15 15 14 14 14 14 14 14 14 14 15 15 15 15 15 15 15 15 15 15 15 15 15 15 15 15 15 15 15 15 15 15 15 16 16 16 17 17
22 25 24 23 24 25 25 25 25 25 26 26 26 27 27 27 26 26 25 24 23 23 23 21 20 20 20 19 19 18 18 18 19 18 18 18 18 18 18 18 18 18 18 17 16 15 15 15 15 14 14 14 14 14 14 14 14 14 15 15 15 15 15 15 15 16 16 16 16 16 16 16 16 16 16 16 16 16 16 17 17 17 18 18 18
17 21 22 22 22 23 24 24 24 24 25 26 26 27 28 28 28 27 26 25 24 23 22 21 21 20 20 19 19 18 18 19 19 18 18 18 18 18 18 18 18 18 18 17 16 15 15 15 15 15 14 14 14 14 14 14 14 14 15 14 15 15 15 16 16 16 16 16 16 16 16 16 16 16 16 16 16 17 17 17 17 18 18 18 18
14 16 18 19 20 21 22 23 23 23 24 25 25 27 28 29 29 28 27 26 25 23 22 21 21 21 20 20 19 19 19 19 18 18 18 18 18 18 18 18 18 18 17 17 16 15 15 15 15 15 15 15 14 14 14 14 14 14 15 14 15 15 15 15 16 16 16 16 16 17 17 17 17 16 16 16 17 17 17 17 18 18 18 18 17
15 15 16 17 18 19 20 21 21 21 22 22 22 23 25 27 28 28 27 26 25 24 23 22 22 21 21 20 20 19 19 18 18 19 18 18 18 18 18 18 18 17 17 16 16 16 15 15 15 15 15 15 14 14 15 15 15 14 15 15 15 15 15 15 16 16 16 16 16 16 17 17 17 17 17 17 17 17 17 17 17 17 17 17 17
15 14 14 15 17 17 17 18 19 19 19 18 18 18 19 20 23 25 26 25 24 24 23 22 22 21 21 20 20 20 19 18 18 18 17 17 17 17 17 18 18 17 16 16 16 15 15 15 15 15 15 14 14 14 14 14 14 14 14 15 15 15 15 15 15 15 15 15 15 16 16 16 16 16 17 17 17 17 17 17 17 17 16 16 17
14 13 13 14 15 15 15 16 16 16 16 16 15 15 14 14 16 19 21 23 23 22 22 21 21 21 20 20 20 20 19 18 18 18 17 17 17 17 17 17 17 16 16 16 15 15 15 15 15 14 14 14 14 14 14 14 14 14 14 14 14 15 15 15 15 14 14 15 15 15 16 16 16 16 16 17 17 17 17 17 17 17 17 17 17
13 11 10 11 12 13 13 13 14 14 14 14 13 13 12 12 13 15 17 18 19 20 20 20 20 20 20 20 20 19 18 18 18 17 17 16 16 16 16 16 16 16 15 15 15 15 15 14 14 13 13 13 13 13 13 14 14 14 14 14 14 14 14 14 14 15 15 15 15 16 16 16 16 16 16 17 17 17 17 18 17 17 17 17 17
12 10 8 9 10 10 11 12 13 13 13 13 13 12 12 12 12 12 14 15 17 18 19 19 18 18 18 18 17 17 17 16 16 16 15 15 15 14 14 14 15 14 15 15 14 14 14 14 14 13 13 13 13 13 13 13 13 13 14 14 14 14 14 14 14 14 15 15 15 16 16 16 17 17 17 17 18 18 18 18 18 18 18 18 18
11 10 9 9 10 10 11 11 12 12 12 11 11 11 11 11 11 11 12 13 14 15 16 17 16 16 15 15 15 14 14 14 14 14 14 13 13 13 13 13 13 13 14 14 14 14 14 14 14 14 14 14 14 14 14 13 13 13 13 13 13 13 13 13 14 14 14 15 15 16 16 17 17 18 18 18 18 19 19 19 19 19 19 19 19
11 11 10 10 10 11 11 11 11 12 11 10 10 10 10 10 9 10 11 11 12 13 14 14 14 13 13 13 12 12 12 12 12 12 12 12 12 11 11 12 12 12 12 13 13 13 13 14 14 14 14 14 14 14 14 14 13 13 13 13 13 13 13 13 14 14 15 15 16 17 17 18 18 18 18 18 19 19 19 19 19 18 18 18 18
12 11 11 11 11 11 11 11 11 11 11 10 10 9 9 9 9 9 9 10 11 12 12 12 12 12 12 12 11 11 10 10 10 11 11 11 11 11 11 11 11 11 12 12 12 12 13 13 14 14 14 14 14 14 14 14 13 13 13 13 14 14 14 15 15 16 17 17 18 18 18 18 19 19 19 19 19 19 18 19 18 18 18 18 18
12 12 11 11 11 10 10 11 11 10 10 10 9 9 9 9 9 9 8 9 9 10 11 11 11 11 10 10 10 10 10 10 10 10 10 10 11 11 11 11 11 11 11 12 12 13 13 13 14 14 14 14 13 14 14 14 13 14 14 15 15 16 16 17 17 18 18 19 19 19 19 19 19 20 19 19 19 18 18 18 18 17 17 17 17
13 12 11 11 11 11 11 10 10 10 9 9 8 8 9 9 9 9 9 8 9 9 10 10 10 10 9 9 9 9 10 10 10 10 10 11 11 11 11 11 11 12 12 12 13 13 13 13 13 13 13 13 13 13 13 13 14 14 15 16 17 17 17 18 18 18 19 19 19 19 19 19 20 20 19 19 18 18 18 17 17 17 17 17 16
13 12 12 12 12 12 11 11 10 10 9 9 8 8 9 9 8 9 9 9 9 9 9 9 9 9 9 9 9 9 9 10 10 10 10 10 11 11 11 11 12 12 13 13 13 13 13 13 12 12 12 12 12 12 13 14 14 15 16 16 17 18 18 18 19 19 19 19 19 19 19 19 19 19 18 18 17 17 17 17 17 17 16 16 15
14 13 12 12 13 13 12 12 11 10 10 10 9 9 9 9 9 9 9 9 9 9 9 9 8 8 8 8 9 9 10 10 10 10 10 10 11 11 11 12 12 12 12 12 12 12 12 12 12 12 12 12 13 13 14 15 15 16 17 17 18 18 18 18 18 18 18 18 18 18 18 18 17 17 17 17 16 16 16 16 15 15 15 15 15
14 14 13 13 13 13 13 13 12 12 11 10 10 10 9 10 10 10 10 10 10 10 10 9 9 9 9 9 9 10 10 10 10 11 11 11 11 11 11 11 11 11 11 11 11 11 11 11 11 12 12 13 13 14 15 15 16 16 16 16 17 17 17 17 17 17 17 17 17 17 16 16 16 16 15 15 15 15 15 15 14 14 14 14 14
14 14 14 14 14 13 13 13 13 12 12 11 10 10 10 10 10 10 10 10 10 10 10 10 10 9 9 9 10 10 10 11 11 11 10 10 10 10 10 10 10 10 10 10 10 10 10 11 11 12 12 13 14 14 14 14 14 14 14 14 15 15 15 15 15 15 15 15 15 15 15 15 15 14 14 14 14 14 14 14 14 14 14 14 14
14 14 14 14 14 14 14 13 13 13 12 12 11 11 11 10 10 10 10 10 11 11 11 11 11 10 10 10 11 11 11 11 10 10 10 10 10 10 10 10 10 10 10 10 10 10 11 11 11 12 12 13 13 13 12 12 12 12 13 13 13 14 14 14 14 14 14 14 14 14 14 14 13 13 13 13 13 13 13 13 13 13 13 13 13
15 16 15 15 15 15 14 14 13 13 12 12 12 12 11 11 10 10 10 10 10 11 11 11 11 11 11 11 11 11 11 11 11 11 10 10 10 10 10 10 10 10 10 10 10 10 11 11 11 11 11 11 11 11 10 11 11 11 12 12 12 13 13 13 13 13 13 13 13 13 13 13 13 13 12 12 12 12 12 13 13 13 13 13 14
17 17 16 16 16 16 15 14 14 13 13 12 12 12 12 12 11 11 11 11 11 10 10 10 10 10 10 10 10 10 10 11 11 10 10 10 10 10 9 10 10 10 10 10 10 10 10 10 10 10 10 9 9 9 10 10 10 11 11 11 12 12 12 13 13 13 13 13 12 13 13 12 13 13 12 12 12 12 12 13 13 13 14 14 14
17 18 18 17 17 17 16 15 14 13 13 13 13 12 12 12 12 12 12 11 11 11 10 10 10 10 10 10 10 10 10 10 10 10 10 10 9 9 9 9 9 9 9 9 9 9 9 9 9 9 9 9 9 9 10 10 10 10 11 11 12 12 12 13 13 13 13 13 12 12 12 12 12 12 12 12 12 12 13 13 13 14 14 14 14
17 18 19 19 19 18 17 16 15 14 14 14 13 13 13 12 12 12 12 11 11 11 10 10 10 10 10 9 9 10 10 10 10 10 10 9 9 9 9 9 9 9 9 8 8 8 9 8 8 8 9 9 9 10 10 11 11 11 11 12 12 12 12 13 13 13 13 13 13 12 12 13 13 13 13 13 13 13 14 14 14 14 15 15 15
19 19 19 19 20 20 19 18 17 16 15 15 14 13 13 13 12 12 12 11 11 10 10 10 9 9 10 10 10 10 10 9 9 9 9 8 8 8 8 8 8 8 8 8 8 8 8 8 8 8 9 9 10 10 10 11 11 11 11 11 12 12 12 12 13 13 13 13 13 13 13 14 14 13 14 14 14 14 15 15 15 15 15 15 16
18 19 20 20 20 20 19 19 18 17 16 16 15 14 13 13 13 12 12 11 11 10 10 10 9 9 9 9 10 10 9 9 8 8 8 8 8 8 8 8 8 7 7 8 8 8 8 9 9 9 9 10 10 10 10 11 11 11 11 11 12 12 12 12 13 13 13 13 14 14 14 14 14 14 14 15 14 14 14 14 14 15 15 15 15
16 18 19 19 20 20 20 20 19 18 17 17 16 15 15 14 13 13 12 12 11 11 11 10 10 9 9 9 9 10 10 9 9 8 8 8 8 8 8 8 8 8 8 9 9 9 10 10 10 10 10 10 10 10 10 11 11 11 11 12 12 12 12 13 13 13 13 13 14 14 14 14 14 14 14 14 14 14 14 14 14 14 14 15 15
15 17 17 19 20 20 20 20 20 19 18 17 17 16 16 16 15 14 13 13 12 12 12 11 11 10 10 10 10 10 10 10 10 9 9 9 9 9 9 9 9 9 9 10 10 11 11 11 11 11 11 11 11 11 11 11 11 11 12 12 12 12 12 13 13 13 13 13 13 13 14 14 13 13 13 14 14 14 14 14 14 14 14 15 15
16 17 17 18 20 21 21 21 20 20 19 18 18 17 17 17 16 15 14 14 13 13 12 12 12 12 11 11 11 11 11 11 11 11 10 10 10 11 10 10 10 10 11 11 11 11 11 11 11 11 11 11 11 11 11 12 12 12 12 12 13 13 12 13 13 13 13 13 13 13 13 13 13 13 13 13 13 13 13 14 14 14 15 15 16
18 18 18 18 19 20 21 21 21 20 20 19 19 18 18 17 17 16 15 14 14 14 14 13 13 13 13 13 13 13 12 12 12 12 12 11 11 11 12 12 12 12 12 12 13 13 12 12 12 12 12 12 12 12 12 12 12 12 12 13 13 13 13 13 13 13 13 13 13 13 13 13 13 13 13 13 13 13 14 14 14 15 15 15 16
20 19 19 20 20 21 22 22 22 21 20 20 19 19 19 18 18 17 16 16 15 15 15 15 14 14 14 14 14 14 14 14 14 14 13 13 12 12 13 13 13 13 13 13 14 14 14 13 13 13 13 12 12 12 12 12 12 13 13 13 13 13 13 14 14 14 14 14 14 14 13 13 13 13 13 14 14 14 14 15 15 15 15 15 16
21 20 20 21 21 22 22 23 23 22 22 21 20 20 19 19 19 18 18 17 17 17 17 16 15 15 16 16 15 15 15 15 15 15 15 14 14 14 14 15 15 15 15 15 15 15 15 15 15 14 14 14 13 13 13 13 13 13 13 13 14 14 14 14 15 15 15 14 14 14 14 14 14 14 14 14 14 15 15 15 15 16 16 16 16
22 21 21 21 21 22 23 23 23 23 23 22 21 21 20 20 20 20 20 19 19 18 18 18 17 17 17 17 16 16 16 16 16 16 16 16 16 17 17 17 17 16 17 16 16 16 16 16 16 16 16 15 15 15 15 15 15 15 14 14 14 15 15 15 15 15 15 15 15 15 14 15 15 15 15 16 16 16 16 16 16 17 17 17 17
23 22 21 21 21 21 22 23 23 23 23 23 22 22 22 22 21 21 20 21 20 20 20 19 19 19 19 18 18 17 17 17 17 17 17 18 18 19 19 19 19 19 19 19 18 18 18 18 18 18 17 17 16 16 16 16 16 16 16 16 16 16 16 16 16 16 16 16 16 16 16 15 16 16 16 17 17 17 17 18 18 18 18 18 18
22 22 21 21 21 21 22 22 23 23 24 23 23 22 22 22 22 22 22 22 22 21 21 21 21 21 21 20 20 20 19 19 19 20 20 20 20 21 21 21 21 21 21 21 21 21 20 20 20 20 19 19 18 18 18 18 18 18 18 18 18 17 17 17 17 17 17 17 17 17 17 17 17 17 17 18 18 18 19 19 19 19 19 19 19
20 21 21 21 21 22 22 22 22 23 23 23 23 23 22 22 22 22 23 23 23 23 23 23 23 23 23 23 23 22 22 22 22 22 22 22 22 22 23 23 23 23 23 23 22 22 23 22 22 22 22 21 21 20 20 19 20 20 20 20 20 19 19 19 18 18 18 18 18 18 18 18 18 18 18 19 19 19 20 20 20 20 21 21 21
19 20 21 22 22 22 22 22 22 22 22 23 23 23 22 22 22 22 23 24 24 25 25 25 26 25 25 25 25 25 25 24 24 24 24 24 24 24 24 24 24 24 24 24 24 24 24 24 24 24 24 23 22 22 21 21 21 21 21 21 21 21 21 21 21 20 20 20 19 19 19 19 19 19 19 20 20 20 20 21 21 21 21 22 22
20 19 20 21 23 23 22 22 22 22 22 23 23 23 23 23 23 23 23 24 25 26 26 27 27 27 26 27 27 27 27 27 27 27 27 26 26 26 26 26 26 26 26 26 26 26 26 26 26 25 25 24 24 23 23 23 23 23 23 23 23 23 23 23 23 22 22 22 21 21 21 21 21 21 21 21 21 21 22 22 22 22 22 23 23
22 21 20 20 21 23 23 23 23 23 24 24 24 25 25 25 25 25 25 25 26 27 27 27 27 28 28 28 28 29 29 29 29 29 29 29 29 28 28 28 28 28 27 27 28 28 27 27 27 27 26 26 25 25 25 25 25 25 25 25 25 25 25 25 25 24 24 24 23 23 22 22 22 22 22 23 23 23 23 23 23 23 24 24 24
24 23 23 22 22 22 23 23 23 24 24 25 26 26 26 26 27 27 27 27 27 27 28 28 28 28 29 29 29 30 30 31 31 31 31 31 31 31 30 30 30 30 29 29 29 29 29 29 28 28 28 27 27 27 27 27 27 27 27 27 27 27 27 26 26 26 25 25 24 24 24 24 23 23 24 24 24 24 24 24 24 24 24 24 25
24 24 24 24 24 24 24 24 24 24 25 25 25 25 26 26 27 27 27 28 28 29 29 30 30 30 30 31 31 31 32 32 33 33 33 33 33 33 32 32 32 31 31 30 30 30 30 30 30 30 30 30 30 30 29 29 28 28 28 28 28 28 27 27 26 26 25 25 25 25 25 25 25 25 25 25 24 24 24 24 24 24 25 25 25
24 25 25 25 25 26 26 26 26 26 26 26 27 27 27 27 28 28 28 29 29 30 31 32 32 32 32 32 33 33 33 33 34 34 35 34 34 34 34 33 33 32 32 31 31 31 31 31 31 31 32 32 31 31 30 29 29 29 29 29 28 28 28 28 27 26 25 25 25 26 26 26 26 26 26 25 25 25 25 25 25 25 25 26 26
24 24 25 25 26 26 26 26 27 27 27 27 27 28 28 28 28 29 29 29 30 30 31 32 32 32 33 33 33 33 33 33 33 34 34 34 34 34 34 34 34 33 33 32 32 32 31 31 31 32 32 32 32 31 30 30 29 29 29 29 29 29 29 29 28 27 27 26 26 26 26 27 27 27 26 26 26 26 25 25 26 26 27 27 27
23 24 24 25 25 26 26 26 27 27 27 28 28 28 28 28 28 29 29 30 30 31 31 31 32 32 32 32 32 32 32 32 32 32 32 33 34 34 35 35 35 35 34 34 33 33 32 32 32 31 31 32 32 31 31 30 30 30 30 29 29 30 30 29 29 28 28 28 27 27 27 28 28 28 27 27 27 27 27 27 27 28 28 28 27
22 22 23 24 24 25 25 26 26 26 27 27 27 27 28 28 28 28 28 29 29 30 30 31 31 31 31 31 31 31 32 32 32 32 32 32 33 34 34 35 36 36 35 35 34 33 33 32 32 32 32 32 32 32 31 31 31 31 31 30 30 30 31 30 30 29 29 29 28 28 28 28 28 28 28 28 28 28 28 28 28 28 28 28 28
20 21 22 22 23 23 24 24 25 25 25 26 26 26 27 27 27 27 28 28 28 29 29 30 30 30 30 31 31 31 31 32 32 32 32 32 32 33 34 34 35 35 35 34 34 34 33 33 32 32 32 32 32 32 32 33 32 32 32 32 31 31 31 30 30 30 30 29 28 28 28 28 28 28 28 28 28 28 29 29 29 29 28 28 28
18 19 20 21 22 22 23 23 24 24 24 25 25 25 26 26 26 26 27 27 28 28 28 29 29 30 30 30 30 31 31 31 31 32 32 32 32 32 33 33 34 33 33 32 32 33 32 32 32 32 32 32 32 33 33 33 33 33 32 32 32 31 31 30 30 30 29 28 28 27 27 28 28 29 29 29 29 30 30 30 30 29 29 29 29
Wind_Direction
230 230 229 228 227 227 228 229 230 232 233 233 234 234 235 236 238 240 241 243 243 241 241 242 242 243 243 244 245 246 246 247 248 248 247 246 245 246 247 248 249 250 251 252 254 256 258 261 262 262 261 261 261 261 260 258 257 257 258 259 261 262 263 262 263 267 272 276 279 281 282 281 280 279 279 280 279 280 283 284 283 283 285 286 285
234 235 235 234 232 230 229 230 231 232 233 234 235 236 236 237 238 239 241 243 243 242 241 242 242 243 244 245 246 247 248 249 248 248 248 248 247 247 247 247 248 249 249 252 254 256 258 259 261 261 261 261 261 261 261 259 258 258 257 258 259 260 261 262 262 264 268 272 277 280 282 280 278 277 276 277 278 279 282 285 285 285 285 285 285
236 239 241 239 236 233 232 232 233 233 234 235 237 238 238 239 238 238 239 241 242 242 240 241 242 243 244 246 247 248 249 250 249 248 248 249 248 248 248 248 247 247 248 251 254 257 258 258 260 261 261 260 260 259 259 259 259 259 258 257 257 259 260 261 262 263 265 269 274 278 280 278 277 276 275 275 277 279 281 284 286 287 286 285 284
236 239 241 239 236 235 234 234 235 235 236 237 238 239 240 240 239 238 239 240 241 241 240 240 241 243 245 247 248 249 250 250 250 249 249 249 249 249 248 248 247 247 247 250 254 257 258 258 259 260 261 261 260 259 258 258 258 259 259 258 257 258 259 260 260 262 264 267 271 274 276 276 276 276 274 274 276 278 280 282 284 285 285 284 284
238 239 238 236 235 235 236 239 241 240 240 240 240 240 240 240 240 239 238 238 239 240 240 240 242 244 245 247 249 250 250 250 250 250 249 248 248 248 248 248 248 248 249 251 254 256 257 257 258 260 262 262 261 260 258 257 258 260 260 259 258 259 260 260 260 261 263 265 268 271 272 273 274 275 274 274 275 277 278 279 280 281 282 283 283
241 240 239 237 235 236 237 241 244 244 243 243 242 243 243 242 242 241 240 240 241 243 245 245 245 245 246 248 249 250 250 250 251 250 249 248 247 248 248 248 249 249 250 252 254 255 255 256 257 259 261 261 262 260 259 259 260 260 260 260 260 261 261 261 261 262 263 265 268 270 271 272 273 274 274 274 274 275 277 278 279 280 281 282 282
244 241 243 241 238 237 238 240 243 244 245 246 247 248 248 247 246 245 244 244 244 245 248 249 247 246 247 248 249 250 251 251 251 250 248 248 248 249 249 249 248 248 249 250 252 253 254 255 256 258 260 261 262 262 261 262 262 261 261 261 261 261 262 262 262 264 265 266 268 270 271 272 273 274 274 274 274 275 276 278 279 280 281 281 282
250 244 244 243 241 240 241 243 245 247 249 252 253 251 250 248 247 246 244 244 244 244 246 246 245 245 246 248 249 250 250 250 250 249 248 248 248 249 249 248 246 246 247 248 249 251 253 254 255 258 260 261 262 262 262 262 262 262 262 261 262 263 263 263 264 265 267 268 269 271 272 273 273 274 275 274 275 276 277 278 280 282 282 282 282
256 250 245 244 243 243 244 246 248 251 252 254 255 253 251 250 246 243 241 241 242 242 243 243 243 244 246 247 249 249 250 250 249 248 247 247 248 248 248 246 244 244 246 246 248 250 251 253 255 257 259 260 260 261 262 261 262 263 263 263 263 264 264 265 265 266 268 270 271 272 272 273 273 274 274 275 275 277 278 279 280 282 283 283 283
255 251 248 245 245 246 247 248 249 251 252 254 255 256 255 250 243 238 238 239 239 241 242 242 242 243 245 246 247 248 248 249 247 246 246 246 247 247 246 243 241 241 243 245 247 249 250 252 254 257 259 260 260 261 262 262 263 263 264 264 264 264 265 266 266 267 269 270 271 272 272 273 273 274 275 276 277 278 279 280 281 283 283 284 284
254 252 251 249 246 245 247 248 248 249 251 251 252 255 255 247 237 234 235 236 237 239 241 241 241 241 243 244 246 246 247 247 246 244 245 246 247 247 243 240 238 238 241 244 246 248 250 252 253 255 257 260 261 261 263 264 264 264 265 265 265 265 266 266 267 267 267 269 271 272 272 273 275 276 277 278 279 280 280 281 281 282 282 283 284
256 255 255 252 246 244 246 246 245 245 246 246 246 249 250 242 233 231 233 233 235 237 238 238 238 239 241 243 244 245 246 245 243 243 243 244 246 245 241 237 236 237 239 242 245 248 250 252 253 254 256 259 261 263 264 264 265 265 266 266 266 265 265 265 267 268 268 269 270 272 273 275 277 278 279 280 281 282 281 281 281 281 282 282 284
256 256 255 250 246 245 243 242 240 240 240 240 241 242 240 236 233 232 231 231 231 233 234 234 235 237 239 241 242 242 242 241 240 240 241 241 242 242 237 233 233 236 239 241 244 248 250 251 253 255 257 260 262 264 264 264 265 265 265 265 266 266 265 265 267 268 269 271 272 273 274 276 278 280 281 282 283 283 282 282 282 281 282 282 284
254 253 252 247 245 242 239 237 235 235 236 237 237 236 234 233 234 232 230 229 229 230 231 231 231 233 235 236 237 237 237 237 237 237 236 235 236 236 233 231 233 236 239 241 243 246 249 251 253 256 258 260 262 262 262 263 264 264 265 266 267 268 268 268 269 270 271 272 273 275 276 278 279 281 282 282 283 283 282 282 281 281 282 282 283
252 251 248 245 244 241 238 236 231 230 232 234 233 230 228 229 230 231 230 228 227 227 226 225 226 227 228 229 230 230 231 231 231 230 230 229 230 230 230 231 234 236 239 241 243 246 249 252 255 258 259 260 260 261 261 262 263 265 266 267 269 270 271 272 272 273 273 274 275 277 278 279 280 281 282 282 282 283 283 282 282 282 282 283 283
250 248 246 244 243 240 237 234 230 229 232 233 230 226 224 225 228 229 227 223 221 221 220 219 220 219 219 219 220 221 223 223 222 222 223 224 225 226 229 231 234 236 239 241 244 248 252 255 257 258 258 259 260 261 262 261 263 265 267 268 270 271 273 274 275 277 277 278 279 280 280 281 281 282 283 283 283 283 283 283 283 283 282 283 283
245 244 244 241 239 236 233 232 231 230 230 231 230 226 223 222 222 221 218 216 215 214 213 214 215 213 211 211 211 213 215 216 216 217 219 221 222 224 227 231 235 238 240 243 247 251 255 257 258 258 258 259 260 262 262 262 263 265 267 269 272 273 275 277 279 280 280 280 281 282 281 281 281 282 282 283 282 282 282 282 282 282 282 282 283
242 240 239 236 233 231 228 227 228 228 228 228 226 223 220 218 216 214 213 212 210 207 205 205 206 206 205 204 205 207 210 212 213 214 217 220 221 224 229 234 238 242 245 249 253 256 259 259 259 259 259 260 262 264 263 262 263 266 270 272 275 277 278 280 280 281 281 281 281 281 281 280 281 281 282 281 280 280 281 281 281 281 281 281 283
240 237 235 231 228 226 225 225 225 224 224 222 220 218 216 214 213 212 212 211 207 202 198 197 199 201 203 204 205 207 211 214 216 217 219 222 225 230 236 241 245 249 253 256 258 260 261 261 261 260 260 260 262 264 264 264 266 270 273 275 277 278 280 282 282 282 282 282 281 281 280 280 281 282 281 280 280 280 280 281 281 281 281 281 283
237 234 232 229 225 224 223 224 224 222 220 219 217 214 213 213 212 211 210 208 205 200 198 199 202 207 211 213 213 214 216 218 219 221 223 228 233 238 244 249 252 255 257 259 260 259 258 259 260 259 259 260 261 263 266 268 270 272 274 276 278 280 282 283 284 284 284 283 283 282 282 282 282 282 280 280 281 281 282 281 282 281 281 282 283
238 233 229 227 226 224 223 224 224 221 219 219 219 217 215 214 213 211 209 208 206 205 205 209 213 217 220 221 221 221 221 221 222 225 230 235 239 244 249 253 256 258 258 259 259 257 256 256 257 257 259 261 263 265 268 271 272 274 276 278 281 283 284 284 284 284 284 284 284 284 284 284 284 283 281 281 281 281 281 282 283 283 282 282 284
240 234 229 227 227 226 224 223 222 221 220 221 221 221 219 216 215 213 211 210 209 209 211 215 218 221 223 224 223 222 221 222 224 228 233 239 243 248 253 255 256 256 256 257 256 255 255 256 258 260 262 265 268 270 273 275 277 278 280 281 283 284 285 285 285 285 285 286 286 286 285 284 284 283 283 282 281 280 281 282 283 283 283 284 285
240 236 232 230 228 227 225 222 221 221 221 222 223 221 218 216 215 215 214 213 213 213 214 216 219 221 223 223 223 222 222 224 226 230 234 240 244 249 254 255 254 253 253 254 256 257 258 260 262 264 266 269 272 274 276 278 279 280 281 283 284 285 285 286 286 286 286 286 286 286 286 284 283 283 283 282 281 280 282 282 282 283 284 286 286
239 238 235 232 229 227 225 223 222 223 223 222 221 220 217 215 215 215 215 215 215 216 217 219 221 223 224 224 224 225 227 228 231 234 238 242 246 250 254 255 254 254 254 256 258 260 261 264 265 266 268 271 273 275 276 277 278 280 282 283 284 285 285 286 287 287 287 288 288 287 286 284 283 284 284 283 282 282 283 283 283 284 285 287 289
237 236 235 233 229 226 225 224 224 225 224 221 219 217 217 218 218 217 217 216 217 218 220 223 225 226 227 227 228 229 231 234 238 242 244 246 250 254 256 256 255 256 257 258 260 262 264 265 266 267 269 270 272 273 275 276 278 281 283 285 286 287 288 289 290 290 290 290 291 289 286 284 284 286 285 283 283 283 283 284 285 286 288 290 292
237 236 235 233 230 226 225 225 224 223 221 219 218 218 220 220 220 220 220 220 221 221 223 226 229 230 230 230 231 232 235 239 244 247 248 250 253 256 258 258 256 256 258 259 261 263 265 266 267 268 269 269 271 273 275 278 281 283 285 288 289 290 291 292 292 292 292 291 291 291 289 286 286 286 285 284 285 285 285 286 287 288 291 292 293
237 236 234 230 229 226 224 223 223 221 219 218 218 219 220 221 221 221 221 222 223 224 226 228 230 231 233 234 234 235 238 242 246 248 249 251 254 256 258 257 255 256 257 259 261 263 264 265 266 267 268 269 272 274 278 281 283 285 287 290 292 292 292 292 291 290 290 290 290 291 291 289 288 288 287 286 287 288 288 288 289 290 292 293 294
237 236 233 228 227 226 224 221 219 218 218 218 218 218 219 221 221 222 222 223 224 226 228 229 231 234 237 238 237 237 240 243 246 246 247 249 251 252 253 252 251 253 255 257 259 261 262 263 264 265 267 271 274 277 280 282 285 287 289 291 293 293 293 292 291 290 290 289 288 288 290 289 287 286 286 287 287 288 288 290 291 293 293 293 294
236 235 232 228 225 225 224 220 217 217 217 217 217 218 219 219 220 221 223 224 225 225 226 227 231 236 238 238 238 239 240 241 241 240 240 242 243 244 244 243 245 249 253 255 257 259 260 261 262 264 268 273 276 278 281 282 285 288 290 292 294 295 295 294 293 292 291 290 288 287 287 287 286 284 285 286 287 288 289 291 293 293 293 293 293
235 233 229 225 223 223 222 220 218 216 215 215 216 217 217 218 219 219 220 221 221 221 222 223 227 232 234 236 237 238 239 239 239 238 237 237 238 239 239 240 243 248 251 255 258 261 262 262 263 266 270 273 276 279 280 281 284 287 289 292 294 296 297 295 294 293 291 291 290 288 287 286 285 284 284 285 287 288 290 292 292 292 293 294 294
231 227 224 222 221 220 220 219 219 217 215 214 215 216 218 219 219 219 218 217 218 220 221 222 224 228 231 233 234 235 236 236 239 241 242 241 240 240 241 244 247 250 253 257 261 264 266 265 265 267 270 274 277 279 280 282 285 287 290 293 295 297 298 297 295 294 292 291 290 289 289 288 287 286 285 286 287 287 288 290 291 292 293 295 296
225 222 221 221 221 220 218 218 218 218 216 215 215 215 217 219 221 220 219 218 218 220 222 223 226 229 232 233 233 234 236 236 238 242 245 246 245 244 245 248 250 253 257 260 263 267 268 267 266 268 271 274 276 278 280 283 285 287 290 293 295 297 299 299 297 296 294 292 291 289 289 289 288 287 286 286 286 286 287 289 292 293 294 295 296
225 223 222 222 223 221 218 217 217 218 217 216 216 216 217 219 221 222 223 222 223 223 225 228 230 232 235 237 237 239 240 242 244 245 247 247 247 246 247 250 253 256 259 261 264 267 268 267 267 268 272 274 276 278 281 283 285 287 289 292 294 297 299 300 298 296 295 294 293 291 290 289 287 286 286 286 286 287 289 291 293 295 296 296 297
227 226 224 223 223 221 219 217 217 218 218 219 219 219 219 219 220 222 224 227 229 231 232 234 235 237 239 241 242 243 243 244 247 247 248 248 248 247 249 253 256 259 261 263 265 266 267 266 266 268 272 275 276 279 282 285 286 288 290 292 293 295 298 299 298 297 295 294 293 292 290 288 286 285 286 286 287 288 290 292 294 295 296 296 297
226 226 225 224 223 221 219 218 217 218 220 221 222 222 222 222 222 224 226 229 233 236 238 239 241 242 244 245 246 246 247 246 246 246 247 248 248 249 251 255 257 259 262 264 265 266 266 266 266 267 271 274 276 279 282 284 286 289 291 293 294 295 295 296 296 296 294 293 293 291 289 287 285 285 285 286 287 288 290 292 293 295 295 296 296
226 225 224 224 223 222 220 219 219 220 221 223 224 225 226 226 227 229 231 233 235 239 241 243 244 245 246 246 247 248 248 248 248 247 247 248 249 250 253 256 257 259 261 263 265 266 267 267 267 267 269 272 275 278 280 283 286 288 291 293 294 294 293 293 294 293 292 291 290 290 288 287 286 285 285 286 287 288 289 290 292 293 295 296 296
227 225 223 223 222 221 221 221 222 222 223 225 226 228 229 230 232 234 236 237 239 242 245 246 246 247 248 248 248 249 250 251 251 251 251 251 252 253 256 258 259 260 261 262 264 266 266 266 267 267 268 269 272 275 278 281 283 286 289 291 292 293 293 291 291 291 290 289 288 287 286 286 286 286 286 287 287 288 289 290 291 292 294 295 296
225 225 225 224 222 221 222 223 223 224 225 226 227 229 230 232 235 237 239 239 240 243 246 248 249 249 250 250 249 250 251 252 253 254 255 255 256 256 257 259 260 261 262 263 264 265 265 265 265 266 267 268 270 272 275 278 281 283 285 287 289 291 292 291 289 288 288 287 286 285 285 285 285 286 286 286 287 288 289 289 290 291 292 293 294
225 225 225 225 225 225 226 226 227 228 229 229 229 230 232 234 236 238 239 240 241 244 246 248 250 252 253 252 251 251 251 253 254 256 256 257 258 259 259 261 262 262 262 263 264 265 265 265 265 265 266 267 268 270 273 276 279 281 283 284 286 288 290 290 289 288 287 286 285 283 283 284 285 286 287 287 287 288 288 289 289 289 289 290 290
228 227 226 226 227 228 229 229 231 233 233 232 232 233 235 236 237 238 239 241 243 245 247 250 251 253 253 253 252 252 253 254 256 257 257 258 259 259 260 262 263 264 264 264 264 265 265 265 265 265 265 266 267 269 271 274 277 279 281 282 284 285 287 288 288 287 286 285 284 283 282 282 284 286 287 288 288 288 288 288 288 288 288 288 288
229 229 229 228 228 227 228 230 231 232 232 231 232 234 237 239 240 241 242 243 244 246 249 252 254 255 255 254 253 253 254 256 257 258 259 259 260 260 261 262 264 265 265 265 266 266 266 265 265 264 264 265 266 267 269 272 274 276 279 280 282 283 284 285 285 285 284 284 283 282 281 281 283 284 286 287 288 288 288 288 288 288 288 288 287
230 231 230 229 228 228 229 231 232 233 232 232 233 237 240 241 242 243 245 246 247 248 250 253 255 257 258 256 254 254 256 258 259 260 260 260 261 261 262 263 264 265 266 267 267 267 267 266 265 264 263 263 264 266 268 271 273 275 277 278 280 281 282 282 282 282 283 282 281 280 280 280 282 283 285 286 286 287 287 288 289 289 289 288 287
232 232 232 231 230 230 232 234 236 236 236 237 239 242 244 244 245 247 249 250 251 251 253 255 257 258 260 259 258 257 258 259 259 260 261 261 262 262 263 263 264 265 266 267 267 267 267 266 265 263 262 261 263 266 269 271 273 275 276 277 278 279 280 280 280 280 280 280 279 278 278 280 281 282 284 284 285 285 286 287 288 288 289 289 288
234 234 235 234 234 234 235 236 237 238 240 241 243 245 245 246 247 249 251 252 253 253 254 255 257 259 261 261 261 260 260 260 259 260 261 262 262 263 264 264 264 265 266 267 267 267 266 265 264 263 262 261 263 266 269 271 272 274 275 276 277 278 279 279 279 278 278 277 276 276 277 278 280 281 282 283 284 285 286 286 287 288 288 288 288
235 235 236 237 237 238 238 239 240 241 243 244 245 246 247 248 249 250 251 252 253 253 254 255 257 259 261 262 262 262 262 261 261 261 261 262 262 263 264 265 265 264 265 266 267 267 266 265 264 263 263 263 264 266 268 270 271 272 273 275 276 277 277 278 278 278 277 276 275 275 276 277 279 281 282 283 283 284 285 286 287 287 288 288 288
236 236 237 238 239 240 241 242 243 244 246 247 248 249 249 250 251 251 252 253 254 254 255 256 258 259 261 262 263 263 263 262 262 261 261 261 262 262 263 264 264 264 265 266 266 266 266 265 265 264 264 265 265 266 267 268 269 270 272 273 274 275 275 275 276 277 277 276 275 275 276 277 279 280 281 282 282 282 283 285 287 288 288 288 287
238 239 239 240 240 241 242 243 245 246 247 249 250 251 251 252 252 253 254 255 256 256 257 258 259 260 261 262 263 263 263 263 263 263 262 262 262 262 263 263 263 264 265 265 265 266 266 266 266 265 265 264 264 264 265 266 268 269 270 271 272 273 273 273 273 274 274 275 275 276 277 278 279 280 280 281 281 282 283 285 287 288 289 288 287
239 240 241 241 242 243 244 244 245 246 248 249 251 252 253 253 254 255 256 257 258 259 259 260 260 261 261 262 263 264 264 264 264 264 263 263 263 263 263 263 263 263 264 264 265 265 266 267 266 265 265 264 264 263 263 265 267 269 270 271 271 270 271 271 271 272 273 274 275 277 277 278 279 279 279 279 280 281 283 285 287 288 289 288 287
240 241 242 243 243 244 245 246 246 247 249 250 252 253 254 255 255 257 258 259 260 261 261 262 262 262 262 262 263 263 264 264 264 264 264 265 265 265 265 264 263 263 263 264 264 265 266 266 266 265 264 264 263 262 262 265 267 268 269 270 270 270 270 270 271 272 273 275 276 276 277 277 277 277 277 278 279 280 282 284 286 287 287 287 287
243 243 244 244 245 246 246 247 248 249 250 251 252 254 255 256 257 258 259 260 261 262 263 263 264 264 264 264 264 264 264 264 265 266 266 266 266 267 267 266 265 264 263 263 263 264 265 265 265 264 264 263 263 263 263 265 267 268 268 269 269 269 270 271 271 271 273 274 275 276 276 276 276 276 276 276 278 280 282 283 285 286 286 286 287
246 246 246 246 246 247 248 249 250 251 252 253 253 254 255 256 258 259 260 262 262 263 264 265 266 266 265 265 265 265 265 266 266 266 267 267 267 268 267 267 267 267 266 264 263 264 265 265 264 263 263 263 263 263 264 265 266 267 267 267 267 268 269 270 270 271 272 273 275 275 275 275 275 275 275 276 278 280 282 283 283 283 284 286 287